Location: Unspecified
(0.0000°N, 0.0000°E)
Time: 13:07:25
(UTC+00:00)

Hubble Space Telescope - Pass Details

Date: 01 April 2020
Orbit: 536 x 540 km, 28.5° (Epoch: 01 April)

Event Time Altitude Azimuth Distance (km) Brightness Sun altitude
Rises 20:13:24 0° 277° (W) 2,665 5.4 -32.3°
Reaches altitude 10° 20:16:54 10° 308° (NW) 1,773 4.0 -33.2°
Enters shadow 20:17:36 11° 318° (NW) 1,682 3.8 -33.3°
